Latest Weather Observations for Mangrove Mountain

IDN60801

Issued at 11:33 am EST Monday 29 August 2016 (issued every 30 minutes, with the page automatically refreshed every 10 minutes)

About weather observations | Map of weather stations | Latest weather observations for NSW | Other Formats
Station Details ID: 061375 Name: MANGROVE MOUNTAIN AWS Lat: -33.29 Lon: 151.21 Height: 305.0 m
Data from the previous 72 hours. | See also: Recent months at Mangrove Mountain
Date/Time
EST
Temp
°C
App
Temp
°C
Dew
Point
°C
Rel
Hum
%
Delta-T
°C
Wind Press
QNH
hPa
Press
MSL
hPa
Rain since
9am
mm
Dir  Spd
km/h
Gust
km/h
Spd
kts
Gust
kts
29/11:30am 15.7 13.7 4.4 47 5.4 SE 4 7 2 4 - - 0.0
29/11:00am 15.1 13.2 5.0 51 4.8 SSE 4 7 2 4 - - 0.0
29/10:30am 14.6 12.9 5.7 55 4.3 SSW 4 7 2 4 - - 0.0
29/10:00am 13.4 12.1 5.8 60 3.6 WSW 2 4 1 2 - - 0.0
29/09:30am 12.7 11.1 6.3 65 3.1 NNW 4 6 2 3 - - 0.0
29/09:00am 11.9 10.4 6.8 71 2.5 W 4 6 2 3 - - 0.0
29/08:30am 10.4 8.5 6.5 77 1.9 NW 6 7 3 4 - - 0.0
29/08:00am 9.2 7.7 6.6 84 1.2 NW 4 7 2 4 - - 0.0
29/07:30am 8.3 6.3 7.2 93 0.5 NW 7 9 4 5 - - 0.0
29/07:00am 5.3 3.1 5.3 100 0.0 NW 6 7 3 4 - - 0.0
29/06:30am - - - - - NW 6 6 3 3 - - 0.0
29/06:00am 3.5 0.9 3.2 98 0.1 NW 6 6 3 3 - - 0.0
29/05:30am 3.8 2.4 3.4 97 0.2 CALM 0 0 0 0 - - 0.0
29/05:00am 4.0 1.8 3.4 96 0.3 NNW 4 4 2 2 - - 0.0
29/04:30am 4.4 2.7 3.8 96 0.3 NNW 2 4 1 2 - - 0.0
29/04:00am 4.9 2.9 4.5 97 0.2 NNW 4 6 2 3 - - 0.0
29/03:30am 5.2 3.6 4.6 96 0.3 NNW 2 4 1 2 - - 0.0
29/03:00am 5.5 3.6 4.9 96 0.3 NNW 4 6 2 3 - - 0.0
29/02:30am 5.5 3.6 4.9 96 0.3 NW 4 6 2 3 - - 0.0
29/02:00am 5.7 3.9 5.4 98 0.1 NW 4 6 2 3 - - 0.0
29/01:30am 5.5 4.0 5.1 97 0.2 NW 2 4 1 2 - - 0.0
29/01:00am 5.5 3.6 4.8 95 0.3 NW 4 6 2 3 - - 0.0
29/12:30am 6.3 4.5 5.4 94 0.4 NW 4 6 2 3 - - 0.0
29/12:00am 6.6 4.9 5.7 94 0.4 NW 4 6 2 3 - - 0.0
 
Date/Time
EST
Temp
°C
App
Temp
°C
Dew
Point
°C
Rel
Hum
%
Delta-T
°C
Wind Press
QNH
hPa
Press
MSL
hPa
Rain since
9am
mm
Dir  Spd
km/h
Gust
km/h
Spd
kts
Gust
kts
28/11:30pm 6.5 4.8 5.8 95 0.3 NW 4 6 2 3 - - 0.0
28/11:00pm 6.4 5.0 5.4 93 0.4 N 2 2 1 1 - - 0.0
28/10:30pm 6.7 5.7 5.5 92 0.5 CALM 0 0 0 0 - - 0.0
28/10:00pm 7.1 5.7 5.4 89 0.8 ENE 2 2 1 1 - - 0.0
28/09:30pm 7.6 5.9 6.1 90 0.7 ENE 4 6 2 3 - - 0.0
28/09:00pm 7.2 6.2 5.8 91 0.6 CALM 0 0 0 0 - - 0.0
28/08:30pm 7.3 6.4 5.9 91 0.6 CALM 0 0 0 0 - - 0.0
28/08:00pm 7.1 6.2 5.9 92 0.5 CALM 0 0 0 0 - - 0.0
28/07:30pm 7.5 6.6 6.0 90 0.7 CALM 0 0 0 0 - - 0.0
28/07:00pm 7.8 6.8 5.6 86 1.0 CALM 0 0 0 0 - - 0.0
28/06:30pm 9.2 7.5 6.1 81 1.4 E 4 6 2 3 - - 0.0
28/06:00pm 10.3 8.6 5.9 74 2.1 SSE 4 6 2 3 - - 0.0
28/05:30pm 12.7 11.0 5.8 63 3.3 SE 4 9 2 5 - - 0.0
28/05:00pm 14.9 11.7 5.1 52 4.7 SSE 11 19 6 10 - - 0.0
28/04:30pm 16.6 14.0 3.3 41 6.2 S 6 9 3 5 - - 0.0
28/04:00pm 17.2 14.1 3.8 41 6.4 S 9 15 5 8 - - 0.0
28/03:30pm 17.8 15.2 4.4 41 6.5 SSE 7 11 4 6 - - 0.0
28/03:00pm 19.3 17.0 4.6 38 7.2 WNW 6 11 3 6 - - 0.0
28/02:30pm 18.8 16.2 3.4 36 7.3 NW 6 13 3 7 - - 0.0
28/02:00pm 18.4 15.9 3.8 38 7.0 NNW 6 13 3 7 - - 0.0
28/01:30pm 18.5 15.7 5.0 41 6.6 WNW 9 15 5 8 - - 0.0
28/01:00pm 17.4 15.2 3.3 39 6.6 WNW 4 7 2 4 - - 0.0
28/12:30pm 17.4 14.9 4.0 41 6.4 W 6 11 3 6 - - 0.0
28/12:00pm 16.4 14.3 3.8 43 5.9 WNW 4 9 2 5 - - 0.0
28/11:30am 15.2 12.7 3.7 46 5.4 WNW 6 9 3 5 - - 0.0
28/11:00am 14.8 12.3 4.5 50 4.9 WNW 7 17 4 9 - - 0.0
28/10:30am 13.2 9.9 4.4 55 4.1 NW 11 17 6 9 - - 0.0
28/10:00am 12.5 9.2 4.5 58 3.7 WNW 11 15 6 8 - - 0.0
28/09:30am 11.2 7.5 4.2 62 3.2 WNW 13 24 7 13 - - 0.0
28/09:00am 10.2 6.4 3.9 65 2.8 WNW 13 22 7 12 - - 0.0
28/08:30am 8.9 6.2 3.5 69 2.4 NW 7 13 4 7 - - 0.0
28/08:00am 7.8 5.1 3.5 74 1.9 NW 7 15 4 8 - - 0.0
28/07:30am 6.5 3.7 3.3 80 1.4 WNW 7 13 4 7 - - 0.0
28/07:00am 4.5 1.6 2.5 87 0.8 NW 7 9 4 5 - - 0.0
28/06:30am 3.7 0.8 1.7 87 0.8 NW 6 9 3 5 - - 0.0
28/06:00am 4.2 1.3 1.6 83 1.0 NW 6 9 3 5 - - 0.0
28/05:30am 4.8 1.5 2.2 83 1.1 NW 9 13 5 7 - - 0.0
28/05:00am - - - - - WNW 7 13 4 7 - - 0.0
28/04:30am 3.9 1.0 1.4 84 1.0 WNW 6 9 3 5 - - 0.0
28/04:00am 5.1 2.1 1.9 80 1.3 NW 7 11 4 6 - - 0.0
28/03:30am 5.1 2.3 1.9 80 1.3 NW 6 9 3 5 - - 0.0
28/03:00am 5.2 2.3 2.4 82 1.2 NW 7 9 4 5 - - 0.0
28/02:30am 5.5 2.7 3.2 85 1.0 WNW 7 13 4 7 - - 0.0
28/02:00am 5.2 2.6 3.2 87 0.8 WNW 6 11 3 6 - - 0.0
28/01:30am 4.8 2.6 3.3 90 0.6 NW 4 7 2 4 - - 0.0
28/01:00am 4.5 3.1 3.3 92 0.5 CALM 0 0 0 0 - - 0.0
28/12:30am 5.0 3.7 4.1 94 0.4 CALM 0 4 0 2 - - 0.0
28/12:00am 5.1 3.8 4.2 94 0.4 CALM 0 2 0 1 - - 0.0
 
Date/Time
EST
Temp
°C
App
Temp
°C
Dew
Point
°C
Rel
Hum
%
Delta-T
°C
Wind Press
QNH
hPa
Press
MSL
hPa
Rain since
9am
mm
Dir  Spd
km/h
Gust
km/h
Spd
kts
Gust
kts
27/11:30pm 5.8 4.6 4.4 91 0.6 CALM 0 0 0 0 - - 0.0
27/11:00pm 6.8 5.4 5.3 90 0.7 NNW 2 6 1 3 - - 0.0
27/10:30pm 6.8 5.7 5.0 88 0.8 CALM 0 0 0 0 - - 0.0
27/10:00pm 8.1 6.4 5.9 86 1.0 NNW 4 6 2 3 - - 0.0
27/09:30pm 7.9 6.6 5.9 87 0.9 WNW 2 6 1 3 - - 0.0
27/09:00pm 8.8 7.1 5.7 81 1.4 NW 4 6 2 3 - - 0.0
27/08:30pm 10.1 8.2 7.7 85 1.2 NNE 7 11 4 6 - - 0.0
27/08:00pm 10.5 8.7 7.9 84 1.3 NE 7 9 4 5 - - 0.0
27/07:30pm 11.1 9.0 8.1 82 1.5 NE 9 13 5 7 - - 0.0
27/07:00pm 11.1 9.4 8.3 83 1.4 NE 7 13 4 7 - - 0.0
27/06:30pm 11.2 9.6 8.1 81 1.5 NE 6 11 3 6 - - 0.0
27/06:00pm 11.7 10.0 7.6 76 2.0 ENE 6 9 3 5 - - 0.0
27/05:30pm 13.0 11.2 7.2 68 2.9 ENE 6 9 3 5 - - 0.0
27/05:00pm 15.0 13.1 4.7 50 4.9 NNE 4 7 2 4 - - 0.0
27/04:30pm 16.1 14.2 4.8 47 5.4 NNW 4 7 2 4 - - 0.0
27/04:00pm 17.4 15.7 5.7 46 5.8 NW 4 9 2 5 - - 0.0
27/03:30pm 17.3 15.2 5.9 47 5.6 NW 6 13 3 7 - - 0.0
27/03:00pm 17.2 15.2 6.1 48 5.5 NNW 6 11 3 6 - - 0.0
27/02:30pm 17.1 14.9 6.0 48 5.5 NW 7 13 4 7 - - 0.0
27/02:00pm 16.8 15.1 6.0 49 5.3 NE 4 7 2 4 - - 0.0
27/01:30pm 16.2 14.1 5.8 50 5.1 N 6 15 3 8 - - 0.0
27/01:00pm 16.9 14.8 5.8 48 5.5 NNW 6 13 3 7 - - 0.0
27/12:30pm 16.4 14.3 5.7 49 5.2 WNW 6 15 3 8 - - 0.0
27/12:00pm 15.8 13.8 6.3 53 4.7 NNW 6 11 3 6 - - 0.0
27/11:30am 14.5 12.5 6.3 58 4.0 SSW 6 11 3 6 - - 0.0
27/11:00am 13.7 11.5 5.3 57 4.0 SW 6 9 3 5 - - 0.0
27/10:30am 13.4 11.3 5.6 59 3.7 W 6 11 3 6 - - 0.0
27/10:00am 12.3 10.5 7.2 71 2.5 WSW 6 9 3 5 - - 0.0
27/09:30am 10.8 8.8 6.4 74 2.1 W 6 9 3 5 - - 0.0
27/09:00am - - - - - NW 6 9 3 5 - - 0.0
27/08:30am 9.0 7.0 6.3 83 1.3 W 6 7 3 4 - - 0.0
27/08:00am - - - - - WSW 4 7 2 4 - - 0.0
27/07:30am - - - - - W 6 7 3 4 - - 0.0
27/07:00am 4.7 3.1 4.7 100 0.0 SW 2 4 1 2 - - 0.0
27/06:30am 2.9 1.3 2.6 98 0.1 CALM 0 0 0 0 - - 0.0
27/06:00am 3.2 1.7 2.9 98 0.1 CALM 0 0 0 0 - - 0.0
27/05:30am 4.0 2.2 3.7 98 0.1 WSW 2 4 1 2 - - 0.0
27/05:00am 4.5 3.3 4.4 99 0.0 CALM 0 0 0 0 - - 0.0
27/04:30am 5.8 4.8 5.8 100 0.0 CALM 0 0 0 0 - - 0.0
27/04:00am 5.3 3.9 5.3 100 0.0 WNW 2 4 1 2 - - 0.0
27/03:30am 5.5 3.7 5.5 100 0.0 NW 4 6 2 3 - - 0.0
27/03:00am 4.7 2.8 4.7 100 0.0 WNW 4 6 2 3 - - 0.0
27/02:30am 4.5 2.5 4.5 100 0.0 NW 4 6 2 3 - - 0.0
27/02:00am 5.2 3.4 5.2 100 0.0 NW 4 6 2 3 - - 0.0
27/01:30am 5.3 4.2 5.2 99 0.0 CALM 0 0 0 0 - - 0.0
27/01:00am 4.9 3.6 4.3 96 0.3 CALM 0 0 0 0 - - 0.0
27/12:30am 6.0 5.0 5.6 97 0.2 CALM 0 0 0 0 - - 0.0
27/12:00am 6.6 5.0 6.3 98 0.1 SSE 4 4 2 2 - - 0.0
 
Date/Time
EST
Temp
°C
App
Temp
°C
Dew
Point
°C
Rel
Hum
%
Delta-T
°C
Wind Press
QNH
hPa
Press
MSL
hPa
Rain since
9am
mm
Dir  Spd
km/h
Gust
km/h
Spd
kts
Gust
kts
26/11:30pm 5.7 4.6 5.0 95 0.3 CALM 0 0 0 0 - - 0.0
26/11:00pm 6.8 5.6 6.4 97 0.2 S 2 6 1 3 - - 0.0
26/10:30pm 6.9 6.1 6.5 97 0.2 CALM 0 2 0 1 - - 0.0
26/10:00pm 7.3 6.2 7.0 98 0.1 S 2 4 1 2 - - 0.0
26/09:30pm 7.0 5.8 6.3 95 0.3 SE 2 4 1 2 - - 0.0
26/09:00pm 7.3 6.4 5.9 91 0.6 CALM 0 0 0 0 - - 0.0
26/08:30pm 8.3 7.5 6.6 89 0.8 CALM 0 0 0 0 - - 0.0
26/08:00pm 9.5 7.6 7.6 88 0.9 E 7 13 4 7 - - 0.0
26/07:30pm 8.8 7.7 7.1 89 0.8 SE 2 6 1 3 - - 0.0
26/07:00pm 9.1 7.8 6.0 81 1.4 SE 2 4 1 2 - - 0.0
26/06:30pm 10.3 8.6 6.1 75 2.0 SSE 4 6 2 3 - - 0.0
26/06:00pm 10.8 8.8 6.2 73 2.2 SE 6 7 3 4 - - 0.0
26/05:30pm 10.5 9.3 6.3 75 2.0 SE 2 6 1 3 - - 0.0
26/05:00pm 11.2 9.4 5.5 68 2.7 ESE 4 6 2 3 - - 0.0
26/04:30pm 12.2 9.8 4.4 59 3.6 SSE 6 9 3 5 - - 0.0
26/04:00pm 13.4 11.1 4.8 56 4.0 SSW 6 9 3 5 - - 0.0
26/03:30pm 12.4 10.4 4.6 59 3.6 SW 4 7 2 4 - - 0.0
26/03:00pm 12.9 10.5 4.3 56 4.0 SSW 6 11 3 6 - - 0.0
26/02:30pm 13.2 10.0 4.9 57 3.9 WSW 11 19 6 10 - - 0.0
26/02:00pm 12.8 10.2 4.3 56 3.9 SW 7 17 4 9 - - 0.0
26/01:30pm 11.9 10.0 5.1 63 3.2 SW 4 11 2 6 - - 0.0
26/01:00pm 11.1 8.6 4.8 65 2.9 SSW 7 17 4 9 - - 0.0
26/12:30pm 13.1 10.6 4.8 57 3.9 WSW 7 17 4 9 - - 0.0
26/12:00pm 11.9 8.9 3.9 58 3.6 WSW 9 19 5 10 - - 0.0

Other Formats:

Comma delimited format used in spreadsheet applications
http://www.bom.gov.au/fwo/IDN60801/IDN60801.95774.axf

JavaScript Object Notation format (JSON) in row-major order
http://www.bom.gov.au/fwo/IDN60801/IDN60801.95774.json